Regional Weather Roundup
Issued by NWS

Home | Current Version | Previous Version | Graphics & Text | Print | Product List | Glossary On
Versions: 1 2 3 4 5 6 7 8 9 10 11 12 13 14 15 16 17 18 19 20 21 22 23 24 25 26
000
ASUS45 KTFX 261210
RWRMT
MONTANA REGIONAL WEATHER ROUNDUP
NATIONAL WEATHER SERVICE GREAT FALLS MT
600 AM MDT WED JUL 26 2017

NOTE: "FAIR" INDICATES FEW OR NO CLOUDS BELOW 12000 FEET WITH NO
SIGNIFICANT WEATHER AND/OR OBSTRUCTIONS TO VISIBILITY.

MTZ001>007-043-261300-
WEST OF THE DIVIDE

CITY           SKY/WX    TMP DP  RH WIND       PRES   REMARKS
KALISPELL      CLEAR     49  43  80 SW3       30.07R
MISSOULA       CLEAR     54  37  52 CALM      30.11R
BUTTE          CLOUDY    51  44  77 CALM      30.23R
MULLAN PASS    CLEAR     63  31  30 CALM      30.23R
ANACONDA         N/A     54  34  47 SW7       30.19R
DEER LODGE       N/A     52  39  62 W3        30.20S
EUREKA           N/A     48  34  57 MISG      30.08S
HAMILTON         N/A     54  41  62 CALM      30.12R
LIBBY            N/A     46  37  71 SE3       30.07R
$$

MTZ008-052>055-261300-
SOUTHWEST MONTANA

CITY           SKY/WX    TMP DP  RH WIND       PRES   REMARKS
BOZEMAN        PTCLDY    53  48  83 SE3       30.17S
DILLON         PTCLDY    58  46  64 S7        30.20R
W YELLOWSTONE  CLOUDY    43  41  93 CALM      30.33R
ENNIS          CLOUDY    52  46  82 CALM      30.25S
THREE FORKS      N/A     50  45  83 SW1       30.14R
$$

MTZ009-010-012-014-046-048-049-054-261300-
EAST SLOPES AND CENTRAL MONTANA

CITY           SKY/WX    TMP DP  RH WIND       PRES   REMARKS
CUT BANK       CLEAR     48  40  73 N7        30.14S
GREAT FALLS    CLEAR     52  39  61 SW6       30.14R
HELENA         CLEAR     58  41  53 W8        30.14R
CHOTEAU          N/A     52  37  58 W3        30.16S
$$

MTZ011-013-016-021-045-047-050-051-261300-
NORTH CENTRAL MONTANA

CITY           SKY/WX    TMP DP  RH WIND       PRES   REMARKS
HAVRE          CLEAR     57  43  59 E10       30.09S
LEWISTOWN      CLEAR     53  43  68 SE8       30.15S
N BAR RANCH      N/A     57  43  58 CALM      30.20R
CHINOOK          N/A     55  45  67 E7        30.11S
$$

MTZ017>020-022>027-061-062-261300-
NORTHEAST MONTANA

CITY           SKY/WX    TMP DP  RH WIND       PRES   REMARKS
GLASGOW        CLEAR     58  46  64 E3        30.12R
JORDAN           N/A     50  37  61 CALM      30.12R
SIDNEY         CLEAR     59  47  64 N7        30.13R
WOLF POINT     CLEAR     55  43  63 E5        30.13S
MALTA          CLEAR     54  46  76 E5        30.12S
PLENTYWOOD       N/A     61  52  72 CALM      30.15R
POPLAR           N/A     55  45  67 N6        30.14R
$$

MTZ028>42-056>058-261300-
SOUTHCENTRAL AND SOUTHEAST MONTANA

CITY           SKY/WX    TMP DP  RH WIND       PRES   REMARKS
BAKER          PTCLDY    57  43  59 SE8       30.14R
BILLINGS       PTCLDY    57  46  66 SW3       30.15R
LIVINGSTON     CLOUDY    47  42  83 CALM      30.19R
MILES CITY     CLEAR     63  39  41 NE5       30.10R
BIG TIMBER     CLEAR     50  45  81 W9        30.21S
EKALAKA          N/A     62  54  75 SE7       30.12R
FORSYTH          N/A     59  45  58 CALM      30.10R
LAUREL           N/A     54  43  66 CALM      30.13F
$$

REGIONAL REPORTS...DAKOTAS

CITY           SKY/WX    TMP DP  RH WIND       PRES   REMARKS
WILLISTON      CLEAR     56  49  77 CALM      30.14R
MINOT          CLEAR     60  54  80 W5        30.11S
DICKINSON      CLEAR     55  50  83 SE5       30.12R
BEACH            N/A     57  48  72 CALM      30.16R
CROSBY           N/A     54  54 100 S5        30.15R
TIOGA            N/A     50  50 100 CALM      30.16S
WATFORD CITY     N/A     50  43  76 CALM      30.13R
BISMARCK       CLEAR     62  56  80 CALM      30.09R
GRAND FORKS    CLEAR     63  60  90 NW7       30.00R
FARGO          PTCLDY    62  58  86 W6        30.01R
BUFFALO SD       N/A     67  54  63 CALM      30.08R
RAPID CITY     MOCLDY    70  50  49 N6        30.13R
$$

REGIONAL REPORTS...WYOMING/IDAHO/WASHINGTON

CITY           SKY/WX    TMP DP  RH WIND       PRES   REMARKS
GILLETTE       CLOUDY    62  61  96 S3        30.19R
SHERIDAN       CLEAR     54  52  93 S3        30.17S
BUFFALO WY     CLOUDY    58  51  78 NW5       30.23R
CODY           CLEAR     53  50  89 CALM      30.23R
YELLOWSTONE LA   N/A     47  47 100 CALM      30.40S
IDAHO FALLS    PTCLDY    57  54  89 CALM      30.18R
BOISE          MOCLDY    76  52  43 E6        30.04S
SPOKANE        PTCLDY    64  43  46 E5        30.03R
$$

REGIONAL REPORTS...ALBERTA

CITY           SKY/WX    TMP DP  RH WIND       PRES   REMARKS
EDMONTON       CLEAR     50  48  93 SW3       30.05S
CALGARY        PTCLDY    52  45  76 S6        30.11S
LETHBRIDGE     CLEAR     45  41  87 W6        30.11S
MEDICINE HAT   CLEAR     50  45  81 S3        30.10S
WATERTON GATE    N/A     37  36  93 SW2         N/A
MILK RIVER       N/A     46  43  87 NW6         N/A
ONEFOUR          N/A     57  43  58 NE10        N/A
$$

REGIONAL REPORTS...SASKATCHEWAN

CITY           SKY/WX    TMP DP  RH WIND       PRES   REMARKS
SWIFT CURRENT  CLEAR     55  48  76 S10       30.13R
REGINA         CLEAR     52  52 100 SE3       30.14R
SASKATOON      PTCLDY    52  50  93 SW6       30.12S
CYPRESS HILLS    N/A     54  39  58 SE3         N/A
VAL MARIE        N/A     43  36  75 N2          N/A
ROCKGLEN         N/A     57  48  72 SE6         N/A
ASSINIBOIA       N/A     48  48 100 S6          N/A
$$




USA.gov is the U.S. government's official web portal to all federal, state and local government web resources and services.